This is the latest recevied weather packets stored in our database for station/object 4S6DRJ-13. If no packets are shown the sender has not sent any weather packets the latest 10 day(s).
| Time | Temp. | Humidity | Pressure | Rain* | Wind** | Luminosity | Snow |
|---|---|---|---|---|---|---|---|
| 1777618805 | 33.33° C | 61% | 1008 hPa | 0 mm | 1.79 m/s, 163° | 1121 W/m² | - |
| 1777618745 | 33.33° C | 62% | 1007.9 hPa | 0 mm | 0 m/s | 1122 W/m² | - |
| 1777618683 | 33.33° C | 62% | 1008 hPa | 0 mm | 0.89 m/s, 287° | 1122 W/m² | - |
| 1777618622 | 33.33° C | 62% | 1007.9 hPa | 0 mm | 2.24 m/s, 233° | 1122 W/m² | - |
| 1777618561 | 33.33° C | 62% | 1008 hPa | 0 mm | 3.13 m/s, 237° | 1121 W/m² | - |
| 1777618500 | 33.89° C | 62% | 1008 hPa | 0 mm | 1.79 m/s, 284° | 1122 W/m² | - |
| 1777618439 | 33.89° C | 62% | 1008.1 hPa | 0 mm | 1.34 m/s, 38° | 1123 W/m² | - |
| 1777618378 | 33.89° C | 63% | 1008.1 hPa | 0 mm | 1.79 m/s, 245° | 1122 W/m² | - |
| 1777618318 | 33.89° C | 63% | 1008 hPa | 0 mm | 0.89 m/s, 272° | 1122 W/m² | - |
| 1777618256 | 33.33° C | 63% | 1008.1 hPa | 0 mm | 1.34 m/s, 235° | 1121 W/m² | - |
| 1777618195 | 33.33° C | 62% | 1008.1 hPa | 0 mm | 2.24 m/s, 236° | 1121 W/m² | - |
| 1777618134 | 33.33° C | 63% | 1008.1 hPa | 0 mm | 0 m/s | 1121 W/m² | - |
| 1777618073 | 33.33° C | 62% | 1008 hPa | 0 mm | 0.89 m/s, 252° | 1121 W/m² | - |
| 1777618013 | 33.33° C | 63% | 1008.3 hPa | 0 mm | 1.34 m/s, 340° | 1121 W/m² | - |
| 1777617951 | 33.33° C | 64% | 1008.2 hPa | 0 mm | 1.34 m/s, 305° | 1121 W/m² | - |
| 1777617890 | 33.33° C | 63% | 1008.1 hPa | 0 mm | 0.89 m/s, 186° | 1121 W/m² | - |
| 1777617830 | 33.33° C | 65% | 1008.2 hPa | 0 mm | 0 m/s | 1121 W/m² | - |
| 1777617768 | 33.33° C | 64% | 1008.2 hPa | 0 mm | 1.79 m/s, 76° | 1120 W/m² | - |
| 1777617707 | 33.33° C | 64% | 1008.3 hPa | 0 mm | 0.89 m/s, 280° | 1120 W/m² | - |
| 1777617646 | 33.33° C | 64% | 1008.3 hPa | 0 mm | 1.79 m/s, 31° | 1121 W/m² | - |
| 1777617585 | 33.33° C | 63% | 1008.3 hPa | 0 mm | 1.79 m/s, 243° | 1121 W/m² | - |
| 1777617525 | 33.33° C | 62% | 1008.1 hPa | 0 mm | 2.24 m/s, 226° | 1120 W/m² | - |
| 1777617463 | 33.33° C | 64% | 1008.3 hPa | 0 mm | 0.45 m/s, 191° | 1121 W/m² | - |
| 1777617403 | 33.33° C | 64% | 1008.2 hPa | 0 mm | 0.89 m/s, 215° | 1121 W/m² | - |
| 1777617341 | 33.33° C | 64% | 1008.2 hPa | 0 mm | 0.45 m/s, 218° | 1121 W/m² | - |
* Rain latest hour (hover to see other rain measurements)
** Current wind speed in m/s (hover to see current wind gust speed)